[[{"header":{"parameterUnit":"m.s-1","parameterCategory":1,"la1":30.2991,"la2":30.254,"lo1":-89.0895,"lo2":-89.0444,"dy":0.0017,"dx":0.0017,"nx":28,"ny":28,"refTime":"2024-04-03T03:00:00:Z","depth":0,"parameterNumber":2,"parameterNumberName":"U-component_of_WINDS"},"data":[0,0,0,0,0,0,0,0,0,0,0,0,0,0,0,0,0,0,0,0,0,0,0,0,0,0,0,0,0,0,0,0,0,0,0,0,0,0,0,0,0,0,0,0,0,0,0,0,0,0,0,0,0,0,0,0,0,0,5.5993,5.5993,0,5.6068,5.6069,5.607,5.6055,5.6054,5.6053,5.6051,5.6129,5.6132,5.6135,0,0,0,0,0,0,0,0,0,0,0,0,0,5.5838,5.5841,5.5992,5.5993,5.5994,5.6068,5.6069,5.607,5.6056,5.6054,5.6052,5.6051,5.6128,5.6132,5.6136,0,0,0,0,0,0,0,0,0,0,0,0,0,5.5908,5.5842,5.5992,5.5996,5.5997,5.6068,5.6069,5.607,5.6056,5.6054,5.6052,5.605,5.6126,5.6131,5.6136,5.6208,0,0,5.6151,5.6154,0,0,0,0,0,0,0,0,5.5904,5.5914,5.5995,5.5996,5.5997,5.605,5.6043,5.6116,5.6056,5.6034,5.6051,5.6049,5.6104,5.6111,5.613,5.6211,5.6215,5.6152,5.6155,5.6157,5.6158,0,0,0,0,0,0,0,5.59,5.5911,5.6022,5.5996,5.5997,5.5995,5.6002,5.6057,5.6079,5.6035,5.6035,5.6044,5.6105,5.6125,5.6131,5.6216,5.6152,5.6156,5.6159,5.6161,5.6363,5.6366,0,0,0,0,0,0,5.5893,5.5907,5.602,5.6025,5.5945,5.5999,5.6008,5.6035,5.6079,5.6083,5.6045,5.6043,5.6117,5.6125,5.6134,5.6223,5.6157,5.6162,5.6164,5.6361,5.6364,5.6366,0,0,0,0,0,0,5.589,5.5903,5.6017,5.5966,5.598,5.6004,5.6035,5.6038,5.6058,5.6086,5.609,5.6062,5.6116,5.6127,5.619,5.6225,5.6164,5.6168,5.6358,5.6362,5.6365,5.64,0,0,0,0,0,0,5.5886,5.5902,5.5929,5.5966,5.5983,5.6071,5.6037,5.6041,5.6067,5.6064,5.6103,5.6107,5.6115,5.6183,5.6195,5.6231,5.6172,5.6355,5.636,5.6364,5.6395,5.6404,5.6411,0,0,0,0,0,5.588,5.5935,5.5931,5.5944,5.6016,5.6073,5.6083,5.6091,5.6069,5.6097,5.6116,5.6106,5.6219,5.6189,5.6203,5.6241,5.6353,5.6359,5.6364,5.6392,5.6402,5.6411,0,0,0,0,0,0,5.5901,5.594,5.5935,5.6004,5.6036,5.6071,5.6106,5.6101,5.6139,5.6135,5.6144,5.6153,5.6217,5.6235,5.6201,5.6314,5.6283,5.6292,5.63,5.631,5.6318,5.6312,5.6176,0,0,0,0,0,5.5913,5.5956,5.5988,5.6045,5.6062,5.6081,5.6106,5.611,5.6143,5.6156,5.6179,5.6212,5.6255,5.6283,5.6325,5.6398,5.6407,5.6431,5.6439,5.6445,5.6452,5.6495,5.6507,5.6384,5.6384,5.6384,0,0,5.594,5.5966,5.5992,5.605,5.6075,5.612,5.6092,5.614,5.6174,5.6163,5.6225,5.6244,5.6281,5.635,5.6382,5.6367,5.6489,5.6452,5.6457,5.6461,5.6502,5.6514,5.6524,5.6388,5.6387,5.6386,0,0,5.6011,5.6035,5.6086,5.6112,5.6151,5.6164,5.6177,5.6213,5.6225,5.6288,5.6281,5.6322,5.6395,5.6423,5.6447,5.6532,5.6525,5.6545,5.6586,5.6628,5.6638,5.6646,5.6679,5.669,5.6552,5.6552,5.6552,0,5.6039,5.6106,5.6113,5.6163,5.619,5.6183,5.6237,5.6261,5.6311,5.633,5.6313,5.6407,5.6432,5.6509,5.653,5.6549,5.6565,5.6541,5.6635,5.6644,5.6653,5.6683,5.6695,5.6555,5.6554,5.6554,5.6554,0,5.6139,5.6186,5.6223,5.6273,5.6304,5.6355,5.6371,5.6402,5.6403,5.6419,5.6484,5.6513,5.6561,5.658,5.6581,5.6658,5.6648,5.6633,5.6603,5.6666,5.6696,5.6707,5.6558,5.6557,5.6556,5.6556,0,0,5.6224,5.6279,5.6293,5.6317,5.636,5.6397,5.6448,5.6496,5.6523,5.6558,5.6603,5.6667,5.6654,5.6681,5.6686,5.6723,5.6791,5.6704,5.6705,5.6721,5.688,5.6892,5.6906,5.6787,5.6789,5.6791,5.6878,0,5.6301,5.6393,5.6402,5.6484,5.6529,5.6525,5.657,5.6602,5.6619,5.6659,5.6677,5.6723,5.6702,5.6719,5.6755,5.6775,5.6824,5.6769,5.683,5.6832,5.6822,5.6921,5.6933,5.7013,5.6889,5.6891,5.6892,0,5.6402,5.6442,5.6529,5.6568,5.6587,5.6628,5.6674,5.6713,5.675,5.6759,5.6791,5.6792,5.6847,5.6814,5.6891,5.6854,5.688,5.6894,5.6897,5.6904,5.6867,5.6932,5.7039,5.7052,5.691,5.6909,5.6907,0,5.6459,5.6533,5.6596,5.6616,5.6663,5.6692,5.6713,5.6748,5.6777,5.6817,5.6837,5.6883,5.6908,5.6945,5.6959,5.6933,5.7036,5.7004,5.7047,5.7047,5.7069,5.7068,5.7184,5.7084,5.7083,5.7083,5.7083,0,5.6544,5.6598,5.6622,5.666,5.6721,5.6733,5.6793,5.6812,5.6844,5.6888,5.6886,5.6927,5.6942,5.6986,5.6997,5.7061,5.7072,5.7082,5.7085,5.7083,5.7082,5.7101,5.7096,5.7086,5.7086,5.7085,5.7085,0,5.6617,5.6635,5.6703,5.6743,5.6754,5.6798,5.6832,5.687,5.6886,5.6941,5.6955,5.6981,5.7032,5.705,5.7112,5.712,5.7195,5.7191,5.7182,5.7183,5.7226,5.7222,5.7359,5.7378,5.7264,5.7265,5.7266,0,5.6671,5.6713,5.6757,5.6786,5.6809,5.6855,5.6885,5.6899,5.693,5.6977,5.701,5.7061,5.7103,5.7186,5.7211,5.7259,5.7259,5.7303,5.7266,5.7264,5.7262,5.726,5.7265,5.7311,5.7312,5.7313,5.7313,0,5.6766,5.6773,5.6816,5.6864,5.69,5.6938,5.6974,5.6998,5.7017,5.7053,5.7106,5.7139,5.7203,5.7255,5.7305,5.7328,5.7325,5.7325,5.7338,5.7337,5.7331,5.7337,5.7203,5.7322,5.7321,5.732,5.732,5.732,5.6832,5.687,5.6908,5.6957,5.6986,5.7021,5.706,5.7081,5.7126,5.718,5.7185,5.7243,5.7281,5.7348,5.7373,5.742,5.7407,5.7425,5.743,5.7435,5.7439,5.7323,5.7428,5.7428,5.7428,5.7428,5.7428,0,5.6929,5.6953,5.6998,5.705,5.709,5.7083,5.7124,5.7157,5.7208,5.7244,5.7286,5.7349,5.7399,5.7429,5.748,5.7512,5.7512,5.7525,5.7524,5.7529,5.7446,5.7431,5.7524,5.7524,5.7524,5.7524,5.7524,5.7524,5.6984,5.7048,5.706,5.714,5.7164,5.7221,5.7245,5.7278,5.7307,5.7377,5.742,5.7438,5.7473,5.7527,5.7574,5.7581,5.7601,5.7616,5.7623,5.7545,5.7535,5.7525,5.7511,5.762,5.762,5.7702,5.7703,5.7703]},{"header":{"parameterUnit":"m.s-1","parameterCategory":1,"la1":30.2991,"la2":30.254,"lo1":-89.0895,"lo2":-89.0444,"dy":0.0017,"dx":0.0017,"nx":28,"ny":28,"refTime":"2024-04-03T03:00:00:Z","depth":0,"parameterNumber":3,"parameterNumberName":"V-component_of_WINDS"},"data":[0,0,0,0,0,0,0,0,0,0,0,0,0,0,0,0,0,0,0,0,0,0,0,0,0,0,0,0,0,0,0,0,0,0,0,0,0,0,0,0,0,0,0,0,0,0,0,0,0,0,0,0,0,0,0,0,0,0,-1.4509,-1.4508,0,-1.4425,-1.4424,-1.4423,-1.4458,-1.446,-1.4462,-1.4464,-1.4371,-1.4366,-1.4362,0,0,0,0,0,0,0,0,0,0,0,0,0,-1.4691,-1.4688,-1.4509,-1.4508,-1.4507,-1.4426,-1.4424,-1.4423,-1.4458,-1.446,-1.4463,-1.4465,-1.4372,-1.4367,-1.4362,0,0,0,0,0,0,0,0,0,0,0,0,0,-1.461,-1.4687,-1.4509,-1.4514,-1.4514,-1.4426,-1.4424,-1.4423,-1.4457,-1.446,-1.4463,-1.4466,-1.4374,-1.4367,-1.4361,-1.426,0,0,-1.4341,-1.4338,0,0,0,0,0,0,0,0,-1.4615,-1.4603,-1.4515,-1.4514,-1.4513,-1.4455,-1.4455,-1.4368,-1.4456,-1.4478,-1.4464,-1.4468,-1.4396,-1.4388,-1.4365,-1.4256,-1.4252,-1.434,-1.4336,-1.4334,-1.4332,0,0,0,0,0,0,0,-1.462,-1.4607,-1.4476,-1.4513,-1.4512,-1.4519,-1.4511,-1.4438,-1.4421,-1.4477,-1.4479,-1.4469,-1.4396,-1.4371,-1.4363,-1.425,-1.4341,-1.4335,-1.4331,-1.4328,-1.4054,-1.405,0,0,0,0,0,0,-1.4627,-1.4612,-1.4478,-1.4473,-1.4573,-1.4513,-1.4504,-1.4471,-1.4422,-1.4418,-1.4467,-1.4471,-1.4381,-1.4371,-1.436,-1.4238,-1.4334,-1.4328,-1.4324,-1.4057,-1.4053,-1.4049,0,0,0,0,0,0,-1.4631,-1.4615,-1.4482,-1.4543,-1.4527,-1.4507,-1.4469,-1.4468,-1.4443,-1.4414,-1.4411,-1.4445,-1.4383,-1.4369,-1.4285,-1.4235,-1.4325,-1.4319,-1.4061,-1.4056,-1.4051,-1.3994,0,0,0,0,0,0,-1.4636,-1.4616,-1.4579,-1.4542,-1.4523,-1.441,-1.4466,-1.4464,-1.4433,-1.4438,-1.4393,-1.4389,-1.4384,-1.4295,-1.4279,-1.4228,-1.4314,-1.4065,-1.4059,-1.4053,-1.4,-1.3988,-1.3977,0,0,0,0,0,-1.4642,-1.4565,-1.4577,-1.4561,-1.4477,-1.4407,-1.4396,-1.4395,-1.4429,-1.439,-1.4372,-1.439,-1.4244,-1.4286,-1.4268,-1.4215,-1.4068,-1.406,-1.4053,-1.4005,-1.399,-1.3977,0,0,0,0,0,0,-1.4593,-1.456,-1.4573,-1.4481,-1.4447,-1.4413,-1.4364,-1.4379,-1.4332,-1.4338,-1.4337,-1.4326,-1.4239,-1.4219,-1.4266,-1.4114,-1.4161,-1.4149,-1.4131,-1.4116,-1.4105,-1.411,-1.4308,0,0,0,0,0,-1.4572,-1.4521,-1.4493,-1.4415,-1.4397,-1.4384,-1.4353,-1.4356,-1.4319,-1.4304,-1.428,-1.4241,-1.4187,-1.415,-1.4099,-1.3998,-1.3988,-1.3953,-1.3941,-1.3932,-1.3921,-1.3865,-1.3849,-1.4024,-1.4024,-1.4024,0,0,-1.4527,-1.4502,-1.4469,-1.4404,-1.4378,-1.4323,-1.4371,-1.431,-1.4268,-1.4294,-1.4213,-1.4194,-1.4151,-1.4059,-1.4016,-1.4038,-1.3871,-1.3922,-1.3915,-1.3909,-1.3856,-1.3839,-1.3825,-1.4019,-1.402,-1.4021,0,0,-1.4416,-1.4393,-1.4326,-1.4299,-1.426,-1.4252,-1.4235,-1.4199,-1.4188,-1.4109,-1.4127,-1.4076,-1.3982,-1.3951,-1.3922,-1.3802,-1.3816,-1.3785,-1.3723,-1.3669,-1.3655,-1.3643,-1.3598,-1.3582,-1.3775,-1.3774,-1.3774,0,-1.4364,-1.4284,-1.4288,-1.4226,-1.4196,-1.4221,-1.4151,-1.4124,-1.4068,-1.4046,-1.4073,-1.3957,-1.3929,-1.3829,-1.38,-1.3777,-1.3756,-1.3789,-1.3657,-1.3645,-1.3633,-1.3591,-1.3574,-1.3771,-1.3771,-1.3772,-1.3772,0,-1.4221,-1.4165,-1.4114,-1.4064,-1.4028,-1.3962,-1.3955,-1.3918,-1.3924,-1.3913,-1.383,-1.3799,-1.3742,-1.3718,-1.3722,-1.3618,-1.3634,-1.3659,-1.3705,-1.3613,-1.3573,-1.3557,-1.3766,-1.3767,-1.3768,-1.3769,0,0,-1.4075,-1.4029,-1.401,-1.3987,-1.3947,-1.3902,-1.3837,-1.3783,-1.3751,-1.3713,-1.3657,-1.3578,-1.3601,-1.3569,-1.357,-1.3523,-1.3428,-1.3554,-1.3553,-1.353,-1.331,-1.329,-1.3271,-1.3439,-1.3436,-1.3433,-1.3313,0,-1.396,-1.3849,-1.3851,-1.3747,-1.3694,-1.3717,-1.366,-1.3627,-1.3615,-1.3567,-1.3553,-1.3497,-1.3532,-1.3513,-1.3468,-1.3449,-1.3383,-1.3458,-1.3384,-1.3381,-1.3392,-1.3251,-1.3229,-1.3118,-1.3298,-1.3295,-1.3293,0,-1.3811,-1.377,-1.3661,-1.3629,-1.3606,-1.3556,-1.3507,-1.3461,-1.3425,-1.3419,-1.3384,-1.3393,-1.3325,-1.3375,-1.328,-1.3331,-1.3301,-1.3287,-1.3283,-1.3274,-1.333,-1.3236,-1.3082,-1.3065,-1.3269,-1.3271,-1.3273,0,-1.3713,-1.3631,-1.3555,-1.3535,-1.3496,-1.3459,-1.3441,-1.3408,-1.3375,-1.3332,-1.3311,-1.3259,-1.323,-1.3189,-1.3183,-1.322,-1.3087,-1.3137,-1.3078,-1.3078,-1.3047,-1.3049,-1.2884,-1.3031,-1.3031,-1.3031,-1.3032,0,-1.3584,-1.3515,-1.3511,-1.3464,-1.3388,-1.3392,-1.3315,-1.33,-1.327,-1.3219,-1.3235,-1.3186,-1.3182,-1.3131,-1.3126,-1.3047,-1.3034,-1.3026,-1.3025,-1.3024,-1.3024,-1.3002,-1.3009,-1.3027,-1.3028,-1.3029,-1.3029,0,-1.3461,-1.3456,-1.3374,-1.3345,-1.3336,-1.3281,-1.3254,-1.3208,-1.3199,-1.3134,-1.3119,-1.3102,-1.3044,-1.3034,-1.2964,-1.2961,-1.2866,-1.2874,-1.2879,-1.2879,-1.2821,-1.2826,-1.2634,-1.2609,-1.2774,-1.2772,-1.2771,0,-1.3378,-1.3326,-1.3292,-1.3261,-1.3241,-1.3189,-1.3157,-1.3158,-1.3124,-1.3079,-1.3038,-1.2982,-1.2936,-1.2841,-1.2821,-1.2768,-1.2773,-1.271,-1.2765,-1.2765,-1.277,-1.2773,-1.2767,-1.2698,-1.2696,-1.2695,-1.2694,0,-1.323,-1.3231,-1.3185,-1.3139,-1.3101,-1.3064,-1.3028,-1.3001,-1.2997,-1.2958,-1.2899,-1.2864,-1.2794,-1.2737,-1.2684,-1.2663,-1.2676,-1.2677,-1.2661,-1.2657,-1.2662,-1.2657,-1.2848,-1.2681,-1.2682,-1.2683,-1.2684,-1.2684,-1.3124,-1.3079,-1.3049,-1.2997,-1.2972,-1.2939,-1.2895,-1.2881,-1.2833,-1.2778,-1.2781,-1.2716,-1.268,-1.2612,-1.2587,-1.2534,-1.2554,-1.2531,-1.2524,-1.2518,-1.2511,-1.2672,-1.2525,-1.2525,-1.2526,-1.2526,-1.2526,0,-1.2976,-1.2958,-1.2911,-1.2863,-1.2822,-1.2843,-1.2805,-1.2769,-1.2712,-1.268,-1.2636,-1.2568,-1.2513,-1.249,-1.2435,-1.2398,-1.2403,-1.2383,-1.2385,-1.238,-1.2497,-1.2517,-1.238,-1.238,-1.238,-1.238,-1.2381,-1.2381,-1.2894,-1.282,-1.2816,-1.2729,-1.2711,-1.265,-1.2626,-1.2595,-1.2569,-1.2494,-1.2449,-1.2436,-1.2406,-1.235,-1.23,-1.2295,-1.2273,-1.225,-1.2247,-1.2357,-1.2371,-1.2385,-1.2403,-1.2246,-1.2246,-1.2134,-1.2132,-1.2132]}]]